Date String (YYYY-MM-DD hh:mm:ss) UTC,Instrument flags,Ambient pressure (hPa),Sample flow (lpm),Bypass flow (lpm),Sample temperature (°C),Ambient temperature (°C),ASC tube jacket temperature (°C),LED temperature (°C),Box temperature (°C),Sample RH (%),Span deviation,Mass concentration (μg/m³),Mass concentration (μg/m³),Mass concentration (μg/m³)
DateTimeUTC,F1_M11,P_M11,Q1_M11,Q2_M11,T1_M11,T2_M11,T3_M11,T4_M11,T5_M11,U1_M11,ZSPAN_M11,X2_M11,X0_M11,X1_M11
2021-12-30 06:00:00,,0814.0,4.98,0.00,22.6,21.8,00.0,31.6,24.1,06.5,0000.0,0004.17,0014.94,0002.53
2021-12-30 06:01:00,,0814.4,5.00,0.00,22.5,21.7,00.0,31.5,24.1,06.5,0000.0,0004.22,0015.35,0002.53
2021-12-30 06:02:00,,0814.2,5.00,0.00,22.5,21.6,00.0,31.5,24.0,06.5,0000.0,0004.22,0016.10,0002.51
2021-12-30 06:03:00,,0814.0,5.01,0.00,22.5,21.6,00.0,31.5,24.0,06.5,0000.0,0004.21,0016.34,0002.49
2021-12-30 06:04:00,,0814.2,5.00,0.00,22.4,21.5,00.0,31.5,24.0,06.5,0000.0,0004.20,0016.15,0002.49
2021-12-30 06:05:00,,0814.3,4.98,0.00,22.4,21.8,00.0,31.5,24.0,06.5,0000.0,0004.25,0015.36,0002.48
2021-12-30 06:06:00,,0814.3,5.01,0.00,22.5,22.6,00.0,31.5,24.3,06.5,0000.0,0004.20,0014.92,0002.47
2021-12-30 06:07:00,,0814.3,4.99,0.00,22.7,23.1,00.0,31.6,24.5,06.5,0000.0,0004.13,0014.88,0002.45
2021-12-30 06:08:00,,0813.9,5.01,0.00,22.7,23.0,00.0,31.6,24.5,06.4,0000.0,0004.16,0015.95,0002.46
2021-12-30 06:09:00,,0813.9,4.99,0.00,22.7,22.7,00.0,31.6,24.4,06.4,0000.0,0004.19,0016.48,0002.47
2021-12-30 06:10:00,,0814.0,5.02,0.00,22.7,22.5,00.0,31.6,24.3,06.5,0000.0,0004.25,0016.70,0002.50
2021-12-30 06:11:00,,0813.9,4.99,0.00,22.6,22.3,00.0,31.6,24.2,06.5,0000.0,0004.32,0017.15,0002.52
2021-12-30 06:12:00,,0813.9,5.02,0.00,22.6,22.1,00.0,31.6,24.1,06.5,0000.0,0004.32,0016.81,0002.54
2021-12-30 06:13:00,,0813.9,4.99,0.00,22.5,21.9,00.0,31.6,24.0,06.5,0000.0,0004.32,0016.23,0002.56
2021-12-30 06:14:00,,0814.0,5.01,0.00,22.4,21.8,00.0,31.5,24.0,06.6,0000.0,0004.37,0016.01,0002.63
2021-12-30 06:15:00,,0814.2,4.99,0.00,22.4,21.7,00.0,31.5,23.9,06.6,0000.0,0004.43,0017.45,0002.66
2021-12-30 06:16:00,,0814.2,5.00,0.00,22.3,21.5,00.0,31.5,23.8,06.6,0000.0,0004.39,0017.43,0002.67
2021-12-30 06:17:00,,0814.2,5.02,0.00,22.3,21.4,00.0,31.5,23.7,06.6,0000.0,0004.38,0017.06,0002.69
2021-12-30 06:18:00,,0814.2,4.99,0.00,22.3,21.5,00.0,31.5,23.8,06.7,0000.0,0004.45,0017.86,0002.73
2021-12-30 06:19:00,,0814.2,5.00,0.00,22.3,22.2,00.0,31.5,24.0,06.7,0000.0,0004.45,0017.33,0002.79
2021-12-30 06:20:00,,0813.6,5.00,0.00,22.5,22.9,00.0,31.5,24.3,06.7,0000.0,0004.39,0016.97,0002.81
2021-12-30 06:21:00,,0813.6,5.00,0.00,22.6,23.0,00.0,31.5,24.4,06.6,0000.0,0004.31,0015.98,0002.81
2021-12-30 06:22:00,,0813.6,5.00,0.00,22.6,22.7,00.0,31.5,24.3,06.6,0000.0,0004.28,0015.76,0002.81
2021-12-30 06:23:00,,0813.5,5.02,0.00,22.5,22.4,00.0,31.5,24.2,06.6,0000.0,0004.28,0016.90,0002.81
2021-12-30 06:24:00,,0813.4,5.01,0.00,22.5,22.2,00.0,31.5,24.1,06.5,0000.0,0004.27,0017.29,0002.80
2021-12-30 06:25:00,,0813.4,5.00,0.00,22.4,22.0,00.0,31.5,23.9,06.6,0000.0,0004.22,0016.74,0002.75
2021-12-30 06:26:00,,0813.4,5.00,0.00,22.3,21.8,00.0,31.5,23.9,06.9,0000.0,0004.11,0014.94,0002.68
2021-12-30 06:27:00,,0813.4,5.00,0.00,22.3,21.6,00.0,31.5,23.8,07.2,0000.0,0004.02,0015.20,0002.60
2021-12-30 06:28:00,,0813.4,5.01,0.00,22.2,21.5,00.0,31.4,23.7,07.4,0000.0,0003.91,0015.26,0002.50
2021-12-30 06:29:00,,0813.4,5.00,0.00,22.2,21.4,00.0,31.4,23.6,07.1,0000.0,0003.81,0014.69,0002.42
2021-12-30 06:30:00,,0813.4,5.00,0.00,22.1,21.3,00.0,31.4,23.6,06.9,0000.0,0003.77,0014.78,0002.34
2021-12-30 06:31:00,,0813.4,4.99,0.00,22.2,21.9,00.0,31.4,23.8,06.9,0000.0,0003.78,0014.40,0002.27
2021-12-30 06:32:00,,0813.5,5.00,0.00,22.3,22.7,00.0,31.4,24.1,06.9,0000.0,0003.79,0014.46,0002.21
2021-12-30 06:33:00,,0813.6,5.00,0.00,22.5,23.3,00.0,31.5,24.4,07.0,0000.0,0003.71,0013.97,0002.14
2021-12-30 06:34:00,,0813.5,4.99,0.00,22.6,23.2,00.0,31.5,24.5,07.1,0000.0,0003.59,0012.37,0002.06
2021-12-30 06:35:00,,0813.5,5.01,0.00,22.6,22.9,00.0,31.5,24.4,07.0,0000.0,0003.53,0011.68,0002.00
2021-12-30 06:36:00,,0813.5,5.00,0.00,22.5,22.6,00.0,31.5,24.2,07.2,0000.0,0003.47,0011.87,0001.93
2021-12-30 06:37:00,,0813.5,4.99,0.00,22.5,22.4,00.0,31.5,24.2,07.1,0000.0,0003.52,0012.51,0001.92
2021-12-30 06:38:00,,0813.5,5.00,0.00,22.5,22.2,00.0,31.5,24.1,06.8,0000.0,0003.56,0012.83,0001.97
2021-12-30 06:39:00,,0813.5,5.01,0.00,22.5,22.0,00.0,31.5,24.1,06.7,0000.0,0003.66,0012.77,0002.07
2021-12-30 06:40:00,,0813.5,4.98,0.00,22.4,21.9,00.0,31.5,24.0,06.7,0000.0,0003.73,0012.79,0002.14
2021-12-30 06:41:00,,0813.5,5.01,0.00,22.4,21.8,00.0,31.4,23.9,06.6,0000.0,0003.78,0012.54,0002.18
2021-12-30 06:42:00,,0813.5,4.99,0.00,22.4,21.7,00.0,31.4,23.9,06.6,0000.0,0003.80,0012.61,0002.25
2021-12-30 06:43:00,,0813.4,5.00,0.00,22.3,21.6,00.0,31.4,23.8,06.6,0000.0,0003.84,0012.57,0002.31
2021-12-30 06:44:00,,0813.4,5.01,0.00,22.3,21.6,00.0,31.4,23.8,06.6,0000.0,0003.92,0014.14,0002.37
2021-12-30 06:45:00,,0813.4,4.99,0.00,22.3,22.3,00.0,31.4,24.0,06.5,0000.0,0004.05,0014.72,0002.47
2021-12-30 06:46:00,,0813.4,5.01,0.00,22.5,23.0,00.0,31.5,24.3,06.5,0000.0,0004.11,0015.14,0002.56
2021-12-30 06:47:00,,0813.5,4.99,0.00,22.6,23.6,00.0,31.5,24.6,06.5,0000.0,0004.23,0015.64,0002.67
2021-12-30 06:48:00,,0813.4,5.00,0.00,22.7,23.4,00.0,31.5,24.6,06.4,0000.0,0004.27,0015.38,0002.73
2021-12-30 06:49:00,,0813.4,5.00,0.00,22.7,23.1,00.0,31.6,24.6,06.4,0000.0,0004.31,0016.03,0002.76
2021-12-30 06:50:00,,0813.4,5.00,0.00,22.7,22.8,00.0,31.6,24.5,06.4,0000.0,0004.37,0016.42,0002.78
2021-12-30 06:51:00,,0813.5,4.99,0.00,22.7,22.6,00.0,31.6,24.4,06.5,0000.0,0004.41,0016.68,0002.80
2021-12-30 06:52:00,,0813.4,5.02,0.00,22.7,22.4,00.0,31.6,24.3,06.5,0000.0,0004.44,0016.85,0002.84
2021-12-30 06:53:00,,0813.5,5.00,0.00,22.6,22.2,00.0,31.6,24.2,06.5,0000.0,0004.44,0017.32,0002.88
2021-12-30 06:54:00,,0813.6,5.00,0.00,22.6,22.1,00.0,31.6,24.2,06.5,0000.0,0004.43,0017.11,0002.92
2021-12-30 06:55:00,,0813.5,5.00,0.00,22.6,22.0,00.0,31.6,24.2,06.5,0000.0,0004.53,0016.21,0002.98
2021-12-30 06:56:00,,0813.4,5.00,0.00,22.5,21.9,00.0,31.5,24.1,06.5,0000.0,0004.60,0015.82,0003.04
2021-12-30 06:57:00,,0813.4,5.00,0.00,22.5,21.8,00.0,31.5,24.1,06.5,0000.0,0004.64,0015.99,0003.06
2021-12-30 06:58:00,,0813.5,4.99,0.00,22.5,21.7,00.0,31.5,24.1,06.5,0000.0,0004.64,0015.85,0003.10
2021-12-30 06:59:00,,0813.5,4.99,0.00,22.4,21.6,00.0,31.5,24.1,06.5,0000.0,0004.59,0015.83,0003.11
